Location: Risskov
(56.1972°N, 10.2480°E)
Time: 00:22:13
(UTC+00:00)

Cosmos 2112 Rocket - Pass Details

Date: 05 July 2020
Orbit: 756 x 787 km, 74.0° (Epoch: 03 August)

Event Time Altitude Azimuth Distance (km) Brightness Sun altitude
Exits shadow 22:48:24 - 208° (SSW) 2,526 6.2 -10.8°
Reaches altitude 10° 22:48:52 10° 208° (SSW) 2,344 6.0 -10.8°
Maximum altitude 22:54:13 87° 296° (WNW) 798 4.1 -10.9°
Drops below altitude 10° 22:59:37 10° 28° (NNE) 2,362 7.5 -11.0°
Sets 23:02:02 0° 29° (NNE) 3,293 8.3 -11.0°
